Weather History for Athens, OH

Change the Weather History Date:

Monday, November 11, 2013

  Actual Average (KPKB) Record (KPKB)
Temperature  
Mean Temperature 40 °F 47 °F  
Max Temperature 54 °F 57 °F 77 °F (1915)
Min Temperature 25 °F 37 °F 16 °F (1957)
Degree Days  
Heating Degree Days 26 18  
Month to date heating degree days 180  
Since 1 July heating degree days 574  
Cooling Degree Days 0 0  
Month to date cooling degree days 0  
Year to date cooling degree days 953  
Moisture  
Dew Point 29 °F    
Average Humidity 70    
Maximum Humidity 94    
Minimum Humidity 33    
Precipitation  
Precipitation 0.00 in 0.10 in 0.56 in (2003)
Month to date precipitation 1.17  
Year to date precipitation 35.90  
Sea Level Pressure  
Sea Level Pressure 30.20 in    
Wind  
Wind Speed 2 mph (SW)    
Max Wind Speed 13 mph    
Max Gust Speed 18 mph    
Visibility 10 miles    
Events Rain    
T = Trace of Precipitation, MM = Missing Value Source: NWS Daily Summary

Daily Weather History Graph

Daily Weather History Graph

Search for Another Location

Airport:

Trip Planner

Search our weather history database for the weather conditions in past years. The results will help you decide how hot, cold, wet, or windy it might be!

Date:

Astronomy

Nov. 11, 2013 Rise Set
Actual Time 7:08 AM EST 5:17 PM EST
Civil Twilight 6:39 AM EST 5:45 PM EST
Nautical Twilight 6:07 AM EST 6:17 PM EST
Astronomical Twilight 5:35 AM EST 6:49 PM EST
Moon 1:55 PM EST (11/11) 12:54 AM EST (11/11)
Length of Visible Light 11h 06m
Length of Day
10h 09m
Waxing Gibbous, 66% of the Moon is Illuminated
Nov 11
Waxing Gibbous
Nov 17
Full
Nov 25
Last Quarter
Dec 2
New
Dec 9
First Quarter

Hourly Weather History & Observations

Time (EST) Temp. Windchill Dew Point Humidity Pressure Visibility Wind Dir Wind Speed Gust Speed Precip Events Conditions
12:15 AM 27.9 °F - 25.7 °F 92% 30.33 in 10.0 mi Calm Calm - N/A   Clear
12:35 AM 28.9 °F - 27.0 °F 92% 30.32 in 10.0 mi Calm Calm - N/A   Clear
12:55 AM 27.9 °F - 25.9 °F 92% 30.32 in 10.0 mi Calm Calm - N/A   Clear
1:15 AM 27.5 °F - 25.7 °F 93% 30.31 in 10.0 mi Calm Calm - N/A   Clear
1:35 AM 26.8 °F - 25.2 °F 94% 30.30 in 10.0 mi Calm Calm - N/A   Clear
1:55 AM 26.4 °F - 24.6 °F 93% 30.30 in 10.0 mi Calm Calm - N/A   Clear
2:15 AM 27.0 °F - 25.3 °F 94% 30.29 in 10.0 mi Calm Calm - N/A   Clear
2:35 AM 27.3 °F - 25.3 °F 92% 30.29 in 10.0 mi Calm Calm - N/A   Clear
2:55 AM 26.8 °F - 24.6 °F 92% 30.30 in 10.0 mi Calm Calm - N/A   Clear
3:15 AM 25.7 °F - 23.7 °F 92% 30.31 in 10.0 mi Calm Calm - N/A   Clear
3:35 AM 25.9 °F 21.7 °F 24.1 °F 93% 30.31 in 10.0 mi West 3.5 mph - N/A   Clear
3:55 AM 25.5 °F - 23.9 °F 94% 30.31 in 10.0 mi Calm Calm - N/A   Clear
4:15 AM 26.2 °F - 24.4 °F 93% 30.31 in 10.0 mi Calm Calm - N/A   Clear
4:35 AM 25.7 °F - 23.9 °F 93% 30.30 in 10.0 mi Calm Calm - N/A   Clear
4:55 AM 25.2 °F 20.9 °F 23.2 °F 92% 30.31 in 10.0 mi WNW 3.5 mph - N/A   Clear
5:15 AM 25.7 °F - 23.9 °F 93% 30.29 in 10.0 mi Calm Calm - N/A   Clear
5:35 AM 25.3 °F 21.1 °F 23.5 °F 93% 30.30 in 10.0 mi West 3.5 mph - N/A   Clear
5:55 AM 25.7 °F - 24.1 °F 94% 30.29 in 10.0 mi Calm Calm - N/A   Scattered Clouds
6:15 AM 26.4 °F - 24.8 °F 94% 30.30 in 10.0 mi Calm Calm - N/A   Overcast
6:35 AM 27.3 °F - 25.7 °F 94% 30.30 in 10.0 mi Calm Calm - N/A   Overcast
6:55 AM 28.4 °F - 26.4 °F 92% 30.29 in 10.0 mi Calm Calm - N/A   Overcast
7:15 AM 28.4 °F 24.6 °F 26.4 °F 92% 30.27 in 10.0 mi SSE 3.5 mph - N/A   Scattered Clouds
7:35 AM 29.3 °F 24.3 °F 27.1 °F 92% 30.30 in 10.0 mi WNW 4.6 mph - N/A   Mostly Cloudy
7:55 AM 29.8 °F - 27.5 °F 91% 30.31 in 10.0 mi Calm Calm - N/A   Overcast
8:15 AM 30.2 °F - 27.5 °F 90% 30.31 in 7.0 mi Calm Calm - N/A   Overcast
8:35 AM 31.6 °F - 29.3 °F 91% 30.31 in 10.0 mi Calm Calm - N/A   Overcast
8:55 AM 32.5 °F 28.1 °F 30.2 °F 91% 30.29 in 10.0 mi South 4.6 mph - N/A   Overcast
9:15 AM 33.1 °F - 29.8 °F 88% 30.29 in 10.0 mi Calm Calm - N/A   Overcast
9:35 AM 34.9 °F - 30.2 °F 83% 30.29 in 10.0 mi Calm Calm - N/A   Overcast
9:55 AM 36.0 °F - 30.2 °F 80% 30.29 in 10.0 mi Calm Calm - N/A   Overcast
10:15 AM 36.5 °F 30.3 °F 29.8 °F 77% 30.27 in 10.0 mi South 8.1 mph - N/A   Overcast
10:35 AM 37.0 °F 31.0 °F 30.0 °F 76% 30.24 in 10.0 mi South 8.1 mph - N/A   Overcast
10:55 AM 38.5 °F 33.4 °F 30.7 °F 74% 30.24 in 10.0 mi South 6.9 mph - N/A   Overcast
11:15 AM 40.8 °F 36.9 °F 31.5 °F 69% 30.23 in 10.0 mi SW 5.8 mph - N/A   Overcast
11:35 AM 43.0 °F 37.7 °F 30.9 °F 62% 30.22 in 10.0 mi SSW 9.2 mph - N/A   Overcast
11:55 AM 44.2 °F 40.3 °F 30.9 °F 60% 30.20 in 10.0 mi SSW 6.9 mph - N/A   Overcast
12:15 PM 45.5 °F 42.5 °F 30.4 °F 56% 30.19 in 10.0 mi SSW 5.8 mph - N/A   Overcast
12:35 PM 46.6 °F - 30.9 °F 54% 30.18 in 10.0 mi South 5.8 mph - N/A   Overcast
12:55 PM 47.7 °F - 30.9 °F 52% 30.17 in 10.0 mi SSW 3.5 mph - N/A   Overcast
1:15 PM 48.4 °F - 30.9 °F 51% 30.15 in 10.0 mi Calm Calm - N/A   Overcast
1:35 PM 49.5 °F - 31.6 °F 50% 30.14 in 10.0 mi Calm Calm - N/A   Overcast
1:55 PM 50.4 °F - 31.6 °F 49% 30.13 in 10.0 mi Calm Calm - N/A   Overcast
2:15 PM 51.8 °F - 28.6 °F 41% 30.13 in 10.0 mi South 4.6 mph - N/A   Overcast
2:35 PM 53.2 °F - 27.9 °F 38% 30.11 in 10.0 mi South 3.5 mph - N/A   Overcast
2:55 PM 54.1 °F - 27.7 °F 36% 30.11 in 10.0 mi Calm Calm - N/A   Overcast
3:15 PM 54.5 °F - 25.5 °F 33% 30.11 in 10.0 mi South 6.9 mph - N/A   Overcast
3:35 PM 54.1 °F - 26.4 °F 34% 30.10 in 10.0 mi South 4.6 mph - N/A   Overcast
3:55 PM 54.5 °F - 27.0 °F 35% 30.10 in 10.0 mi South 3.5 mph - N/A   Overcast
4:15 PM 54.9 °F - 26.2 °F 33% 30.09 in 10.0 mi South 3.5 mph - N/A   Overcast
4:35 PM 54.3 °F - 26.8 °F 35% 30.09 in 10.0 mi South 3.5 mph - N/A   Overcast
4:55 PM 54.1 °F - 26.4 °F 34% 30.09 in 10.0 mi South 4.6 mph - N/A   Overcast
5:15 PM 53.8 °F - 26.1 °F 34% 30.08 in 10.0 mi South 3.5 mph - N/A   Overcast
5:35 PM 52.7 °F - 25.5 °F 35% 30.07 in 10.0 mi Calm Calm - N/A   Mostly Cloudy
5:55 PM 52.0 °F - 25.9 °F 36% 30.07 in 10.0 mi Calm Calm - N/A   Overcast
6:15 PM 52.7 °F - 25.5 °F 35% 30.07 in 10.0 mi SSW 4.6 mph - N/A   Overcast
6:35 PM 52.7 °F - 25.7 °F 35% 30.07 in 10.0 mi SSW 3.5 mph - N/A   Overcast
6:55 PM 52.7 °F - 26.2 °F 36% 30.06 in 7.0 mi SSW 3.5 mph - N/A Rain Light Rain
7:15 PM 49.8 °F - 31.5 °F 49% 30.07 in 10.0 mi West 3.5 mph - N/A   Overcast
7:35 PM 48.7 °F - 32.2 °F 53% 30.08 in 10.0 mi NNW 4.6 mph - N/A   Overcast
7:55 PM 49.1 °F - 30.9 °F 50% 30.08 in 10.0 mi Calm Calm - N/A   Overcast
8:15 PM 49.1 °F - 31.3 °F 50% 30.08 in 10.0 mi NNW 3.5 mph - N/A   Overcast
8:35 PM 48.7 °F - 32.2 °F 53% 30.09 in 10.0 mi Calm Calm - N/A   Overcast
8:55 PM 48.4 °F - 35.4 °F 61% 30.09 in 10.0 mi WNW 8.1 mph - N/A Rain Light Rain
9:15 PM 46.8 °F - 38.3 °F 72% 30.10 in 10.0 mi WNW 6.9 mph - N/A Rain Light Rain
9:35 PM 46.6 °F - 39.2 °F 75% 30.10 in 10.0 mi WNW 6.9 mph - N/A   Overcast
9:55 PM 46.4 °F 45.2 °F 40.1 °F 79% 30.10 in 10.0 mi West 3.5 mph - N/A   Overcast
10:15 PM 46.4 °F 42.4 °F 40.5 °F 80% 30.10 in 10.0 mi WNW 8.1 mph - N/A   Overcast
10:35 PM 46.4 °F 42.9 °F 40.5 °F 80% 30.10 in 10.0 mi WNW 6.9 mph - N/A   Overcast
10:55 PM 45.9 °F 42.9 °F 41.0 °F 83% 30.11 in 7.0 mi WNW 5.8 mph - N/A   Overcast
11:15 PM 44.8 °F 38.7 °F 41.7 °F 89% 30.12 in 4.0 mi NW 12.7 mph 18.4 mph N/A Rain Light Rain
11:35 PM 41.9 °F 35.0 °F 39.2 °F 90% 30.13 in 5.0 mi NNW 12.7 mph 17.3 mph N/A Rain Light Rain
11:55 PM 41.4 °F 35.2 °F 38.3 °F 89% 30.14 in 7.0 mi NNW 10.4 mph - N/A   Overcast